Location: *
(67.0106°N, 58.0289°W)
Time: 23:52:08
(UTC+00:00)

Daily predictions for brighter satellites

Satellite Brightness Start Highest point End
(mag) Time Altitude Azimuth Time Altitude Azimuth Time Altitude Azimuth
Cosmos 2315 Rocket 4.4 22:42:15 10° SSW 22:48:30 74° WNW 22:54:44 10° NNE
Cosmos 1850 Rocket 4.1 22:44:23 10° NW 22:49:38 89° NE 22:54:51 10° SE
HJ-1C 4.3 22:46:24 10° S 22:49:45 54° WSW 22:53:07 10° NNW
Cosmos 1455 Rocket 4.1 22:46:58 10° SE 22:50:40 26° E 22:54:25 10° NNE
Cosmos 1603 3.8 22:45:01 10° WNW 22:50:43 86° NNE 22:56:26 10° ESE
Cosmos 1544 3.2 22:48:33 10° S 22:52:05 53° E 22:55:40 10° NNE
Sich 1 Rocket 4.4 22:48:15 10° SW 22:52:35 56° WNW 22:56:58 10° NNE
SL-16 R/B 2.8 22:49:34 10° NW 22:55:10 59° SW 23:00:44 10° SSE
Cosmos 1626 3.0 22:52:08 10° N 22:55:34 33° NE 22:58:59 10° ESE
EO 1 Delta rocket 4.2 22:50:13 10° SSE 22:55:54 87° WSW 23:00:43 10° NNW
Meteor 2-5 Rocket 3.9 22:52:28 10° NNW 22:58:17 89° ENE 23:04:12 10° SSE
Cosmos 1626 Rocket 3.6 22:54:04 10° NNW 22:58:23 60° ENE 23:02:40 10° SE
Cosmos 1743 3.5 22:54:37 10° SW 22:58:28 58° WNW 23:02:21 10° NNE
CZ-2C R/B 4.3 22:55:55 10° NE 22:59:09 15° ENE 23:02:24 10° ESE
Ariane Rocket 4.2 22:56:26 10° S 23:01:20 48° W 23:06:18 10° NNW
USA 116 3.8 22:57:20 10° NNE 23:01:42 81° ESE 23:05:30 10° SSW
Timation 2 Rocket 4.2 22:57:28 10° SSW 23:03:36 49° SE 23:09:31 10° NE
SL-14 R/B 3.8 22:59:49 10° NNW 23:03:43 44° ENE 23:07:32 10° SE
Cosmos 1825 Rocket 4.3 23:01:15 10° NNW 23:05:19 37° NE 23:09:22 10° ESE
Cosmos 839 Rocket 4.1 22:58:44 10° W 23:05:32 82° S 23:11:43 10° E
SKYMED 2 3.8 23:02:06 10° NNE 23:06:28 77° WNW 23:10:50 10° SSW
CZ-4 R/B 4.3 23:03:39 10° SW 23:06:47 22° W 23:09:59 10° NW
ADEOS Rocket 3.9 23:03:41 10° NNE 23:10:18 39° E 23:17:21 10° SSE
NOSS 2-1 (C) 3.9 23:07:07 10° WSW 23:10:58 53° S 23:15:57 10° E
Meteor 1-4 Rocket 3.5 23:07:55 10° NNW 23:11:26 51° WSW 23:14:52 10° S
SJ-6B 3.3 23:07:30 10° S 23:11:35 69° WSW 23:15:37 10° NNW
NOSS 2-1 (D) 3.9 23:10:18 10° WSW 23:14:09 53° S 23:19:09 10° E
FREGAT/IRIS 4.0 23:11:30 10° S 23:14:11 38° W 23:16:53 10° NNW
Cosmos 2056 Rocket 4.3 23:10:08 10° SSE 23:14:48 30° ESE 23:19:26 10° NE
Okean 1 Rocket 3.0 23:10:28 10° S 23:14:49 73° ESE 23:19:15 10° NNE
Cosmos 1758 Rocket 4.0 23:11:59 10° NNW 23:16:08 43° ENE 23:20:17 10° SE
ASTEX 1 3.3 23:11:13 10° N 23:16:08 72° E 23:21:02 10° S
Cosmos 1602 Rocket 3.5 23:15:41 10° NNW 23:20:05 71° ENE 23:24:26 10° SSE
Cosmos 2341 Rocket 4.5 23:13:56 10° NNW 23:20:11 66° W 23:26:20 10° S
MetOp-B 4.3 23:15:15 10° SE 23:20:33 64° ENE 23:25:52 10° NNW
Cosmos 1741 Rocket 4.3 23:15:12 10° NW 23:20:33 72° SW 23:25:53 10° SSE
CZ-2C R/B 4.0 23:16:22 10° NNE 23:20:41 43° E 23:24:56 10° S
Cosmos 1766 4.2 23:18:06 10° SSE 23:21:29 28° E 23:24:52 10° NNE
NOSS 3-3 (A) 4.5 23:16:09 10° SW 23:22:08 46° SE 23:28:55 10° ENE
NOSS 3-3 (C) 4.5 23:16:15 10° SW 23:22:15 45° SE 23:29:01 10° ENE
Cosmos 1242 Rocket 4.1 23:20:08 10° N 23:22:58 22° NE 23:25:33 11° E
Cosmos 1461 3.6 23:21:37 10° SSW 23:25:08 30° SE 23:28:38 10° E
Resurs 1-3 3.7 23:20:46 10° SSE 23:25:10 85° WSW 23:29:37 10° NNW
Cosmos 2082 Rocket 2.7 23:19:46 10° W 23:25:28 61° N 23:31:11 10° ENE
ERS-1 Rocket 3.5 23:20:49 11° ESE 23:25:30 46° NE 23:30:19 10° NNW
GP-B 4.1 23:22:55 10° N 23:27:16 53° W 23:31:35 10° SSW
Landsat 7 4.3 23:23:03 11° ESE 23:27:25 45° NE 23:31:59 10° NNW
USA 234 4.0 23:21:49 10° ESE 23:27:45 35° SSE 23:33:43 10° SW
Okean 2 Rocket 4.3 23:24:33 10° SW 23:28:57 49° WNW 23:33:24 10° NNE
ARGOS 3.4 23:24:31 10° SSE 23:29:55 73° WSW 23:35:22 10° NNW
Cosmos 1486 Rocket 4.2 23:26:04 10° NW 23:31:18 64° NE 23:35:59 13° ESE
Cosmos 2285 Rocket 4.3 23:24:53 10° NW 23:31:19 65° NNE 23:37:12 13° ESE
Cosmos 2181 Rocket 4.1 23:25:44 10° S 23:31:54 58° E 23:38:11 10° NNE
Cosmos 1174 4.3 23:28:20 10° W 23:33:35 72° SSW 23:37:07 14° ESE
Cosmos 2218 Rocket 4.3 23:28:40 10° NNW 23:35:06 76° WSW 23:41:26 10° S
Cosmos 2366 rocket 4.2 23:29:01 10° NNW 23:35:25 78° WSW 23:41:47 10° S
Cosmos 2227 Rocket 3.0 23:31:00 10° S 23:35:49 29° ESE 23:40:40 10° NE
Cosmos 1437 Rocket 3.4 23:33:38 10° NNW 23:37:24 55° WSW 23:41:07 10° S
Resurs 01 Rocket 1.7 23:33:13 10° SSE 23:37:41 84° WSW 23:42:11 10° NNW
Spot 2 Rocket 3.5 23:32:44 10° SSE 23:37:47 77° ENE 23:42:51 10° NNW
SPOT 5 3.5 23:35:21 13° ESE 23:39:33 46° NE 23:44:32 10° NNW
Cosmos 405 Rocket 2.8 23:36:31 10° S 23:40:08 50° ESE 23:43:49 10° NNE
Cosmos 2219 3.6 23:34:57 10° S 23:40:16 41° ESE 23:45:36 10° NE
SPOT 1/Viking Rocket 3.8 23:36:42 12° SE 23:41:20 55° NE 23:46:23 10° NNW
Cosmos 1821 Rocket 4.0 23:37:05 10° NNW 23:43:20 71° ENE 23:49:27 10° SSE
SL-8 Rocket 4.5 23:38:04 10° NNW 23:44:13 63° W 23:50:17 10° S
Cosmos 1674 3.3 23:40:53 10° NNW 23:44:35 57° WSW 23:48:15 10° S
MetOp-A 4.3 23:40:37 10° SSE 23:45:59 77° WSW 23:51:25 10° NNW
Cosmos 2297 Rocket 2.8 23:41:02 10° S 23:46:02 33° ESE 23:51:03 10° NE
Cosmos 1125 Rocket 4.5 23:43:52 10° WSW 23:49:04 51° NNW 23:54:18 10° NE
CZ-2C R/B 3.4 23:44:46 10° SSE 23:50:14 77° WSW 23:56:01 10° NNW
USA 186 3.8 23:48:33 10° SSW 23:51:38 31° W 23:54:42 10° NNW
SJ 16-02 3.1 23:49:10 10° WNW 23:53:07 30° N 23:57:04 10° ENE
Cosmos 1833 4.2 23:48:09 10° SW 23:53:52 89° SE 23:59:33 10° ENE
Cosmos 1441 Rocket 3.6 23:50:25 10° SW 23:54:10 65° WNW 23:57:56 10° NNE
COSMO-SKYMED 1 4.0 23:50:18 10° NNE 23:54:27 43° NW 23:58:35 10° SW
Cosmos 2263 Rocket 4.1 23:58:30 11° E 23:58:30 11° E 23:59:20 10° E
